Skip Page Navigation
NASA JPL Caltech
NASA Logo - Jet Propulsion Laboratory + View the NASA Portal
+ Near-Earth Object (NEO) Program
Search JPL
JPL Home Earth Solar System Stars & Galaxies Technology
JPL Solar System Dynamics
BODIES ORBITS EPHEMERIDES TOOLS PHYSICAL DATA DISCOVERY FAQ SITE MAP
JPL Small-Body Database Browser
Search: [ help ]  
37682 (1995 GZ6)
Classification: Main-belt Asteroid          SPK-ID: 2037682
Ephemeris | Orbit Diagram | Orbital Elements | Physical Parameters | Discovery Circumstances ]

[ show orbit diagram ]
Orbital Elements at Epoch 2457000.5 (2014-Dec-09.0) TDB
Reference: JPL 8 (heliocentric ecliptic J2000)
 Element Value Uncertainty (1-sigma)   Units 
e .1710631174683369 6.5501e-08  
a 2.305122603918321 1.8336e-08 AU
q 1.910801145145322 1.4621e-07 AU
i 6.253759064801889 6.5646e-06 deg
node 126.6025821360197 5.7094e-05 deg
peri 147.5866931496369 6.1145e-05 deg
M 146.4999689855543 2.7738e-05 deg
tp 2456480.295022956688
(2013-Jul-06.79502296)
9.5755e-05 JED
period 1278.319668136302
3.50
1.5252e-05
4.176e-08
d
yr
n .2816196988698876 3.3601e-09 deg/d
Q 2.699444062691319 2.1472e-08 AU
  Orbit Determination Parameters
   # obs. used (total)      673  
   data-arc span      7291 days (19.96 yr)  
   first obs. used      1995-03-27  
   last obs. used      2015-03-13  
   planetary ephem.      DE431  
   SB-pert. ephem.      SB431-BIG16  
   condition code      0  
   fit RMS      .48226  
   data source      ORB  
   producer      Otto Matic  
   solution date      2015-Apr-07 17:48:44  

Additional Information
 Earth MOID = .899258 AU 
 T_jup = 3.561 
[ show covariance matrix ]

Ephemeris | Orbit Diagram | Orbital Elements | Physical Parameters | Discovery Circumstances ]

Physical Parameter Table
Parameter Symbol Value Units Sigma Reference Notes
absolute magnitude H 15.1 mag n/a MPO324649  

37682 (1995 GZ6)          Discovered 1995-Apr-04 by BAO Schmidt CCD Asteroid Program at Xinglong
Reference: 20020328/Numbers.arcLast Updated: 2004-04-19

Alternate Designations
 1995 GZ6 = 1999 LW27 = 2000 RF61 
Ephemeris | Orbit Diagram | Orbital Elements | Physical Parameters | Discovery Circumstances ]
ABOUT SSD CREDITS/AWARDS PRIVACY/COPYRIGHT GLOSSARY LINKS
FirstGov 2015-Apr-28 03:50 UT
(server date/time)  
NASA Home Page
Site Manager:   Ryan S. Park
Webmaster  Alan B. Chamberlin